Simultaneous Nadir Overpasses (SNOs) Predictions

Prediction of SNOs between NOAA-20 and AQUA Satellite Orbit:

Table of predicted SNOs for the next 14.0 days since TLE Epoch: 8/13/2022
Index Date (NOAA-20) Time (NOAA-20) Lat,Lon (NOAA-20) SZA (NOAA-20 ) Date (AQUA) Time (AQUA) Lat,Lon (AQUA) SZA (AQUA ) Distance(km) Time Diff (sec)
1 08/13/2022 22:24:28 -78.75, -84.77 100.38 08/13/2022 22:24:37 -78.76, -84.69 100.40 1.90 9
2 08/13/2022 23:15:01 79.17, 85.34 78.99 08/13/2022 23:13:52 79.17, 85.40 79.03 1.31 69
3 08/16/2022 13:50:32 78.83,-135.79 80.29 08/16/2022 13:50:58 78.83,-135.89 80.29 2.24 26
4 08/16/2022 14:41:10 -79.10, 33.36 100.12 08/16/2022 14:40:18 -79.11, 33.42 100.10 1.15 52
5 08/19/2022 05:16:47 -78.58, 171.09 98.53 08/19/2022 05:17:29 -78.59, 171.19 98.58 2.24 42
6 08/19/2022 06:07:18 79.07, -18.40 80.74 08/19/2022 06:06:42 79.08, -18.36 80.76 1.04 36
7 08/21/2022 20:42:53 78.62, 119.78 82.26 08/21/2022 20:43:51 78.62, 119.78 82.21 0.10 58
8 08/21/2022 21:33:25 -79.12, -69.62 98.50 08/21/2022 21:33:06 -79.11, -69.73 98.47 2.29 19
9 08/24/2022 12:09:14 -78.12, 65.42 96.19 08/24/2022 12:10:28 -78.09, 65.53 96.25 4.19 74



Historial Predications of SNOs between NOAA-20 and AQUA
